Location: Lanoux
(43.1180°N, 1.4255°E)
Time: 17:00:08
(UTC+00:00)

ITAMSAT 1 - Visible Passes

Search period start: 11 April 2026 00:00
Search period end: 21 April 2026 00:00
Orbit: 782 x 793 km, 98.7° (Epoch: 11 April)

Date Brightness Start Highest point End Pass type
(mag) Time Alt. Az. Time Alt. Az. Time Alt. Az.
11 Apr 8.2 20:37:04 38° E 20:37:39 40° ENE 20:42:30 10° N visible
11 Apr 9.3 22:17:43 26° W 22:17:43 26° W 22:21:32 10° NW visible
12 Apr 9.0 20:06:15 20° E 20:07:34 23° ENE 20:11:33 10° NNE visible
12 Apr 8.3 21:46:54 49° W 21:46:54 49° W 21:51:42 10° NNW visible
13 Apr 9.6 19:35:25 10° E 19:37:37 13° ENE 19:39:52 10° NNE visible
13 Apr 7.5 21:16:04 84° SE 21:16:13 87° ENE 21:21:29 10° NNW visible
13 Apr 10.2 22:56:44 11° W 22:56:44 11° W 22:58:05 10° WNW visible
14 Apr 8.0 20:45:15 44° E 20:45:58 47° ENE 20:50:57 10° N visible
14 Apr 9.5 22:25:54 23° W 22:25:54 23° W 22:29:40 10° NW visible
15 Apr 8.8 20:14:25 23° E 20:15:50 26° ENE 20:20:06 10° N visible
15 Apr 8.5 21:55:05 42° W 21:55:05 42° W 21:59:58 10° NNW visible
16 Apr 9.5 19:43:36 12° E 19:45:51 15° ENE 19:48:43 10° NNE visible
16 Apr 7.6 21:24:16 76° SSW 21:24:34 80° WSW 21:29:49 10° NNW visible
17 Apr 7.8 20:53:26 50° ESE 20:54:16 55° ENE 20:59:23 10° N visible
17 Apr 9.7 22:34:06 19° W 22:34:06 19° W 22:37:42 10° NW visible
18 Apr 8.6 20:22:37 26° E 20:24:06 31° ENE 20:28:38 10° N visible
18 Apr 8.8 22:03:16 35° W 22:03:24 36° W 22:08:12 10° NNW visible
19 Apr 9.3 19:51:47 13° E 19:54:04 18° ENE 19:57:27 10° NNE visible
19 Apr 7.7 21:32:27 64° SW 21:32:55 68° WSW 21:38:09 10° NNW visible
20 Apr 7.7 21:01:38 54° ESE 21:02:35 66° ENE 21:07:46 10° N visible
20 Apr 9.8 22:42:17 16° W 22:42:27 16° W 22:45:38 10° NW visible
